sat.trackr.live / text

‹ back to catalog

STARLINK-11354 [DTC]

NORAD 61532 · 2024-184A

PAYLOAD ACTIVE UNKNOWN

§ Identity

Operator
Country
US
Launch date
2024-10-15
Launch site
AFWTR
Launch vehicle
Mass (kg)
RCS (m²)

Purposes: comms

External: N2YO · Heavens-Above · Gunter

§ Orbital elements

Epoch: 2026-09-21T12:29:40.056864Z

Period
91.74 min
Inclination
53.1584°
Eccentricity
0.0000877
Mean motion
15.69699442 rev/d
Perigee alt
359.2 km
Apogee alt
360.3 km
Semi-major
6,737.9 km
B*
3.6468e-6
RAAN
350.9727°
Arg perigee
61.8252°
Mean anomaly
298.2855°
Rev number
11,117

§ Raw data

STARLINK-11354 [DTC]1 61532U 24184A   26264.52060251 -.00000147  00000+0  36468-5 0  99912 61532  53.1584 350.9727 0000877  61.8252 298.2855 15.69699442111179

JSON: /api/v1/satellites/61532 · /tle

For live sub-satellite position, see the globe view (requires WebGL).

§ Visibility from observer

Set your observer location to see the next 7 days of passes ≥ 10°. The values pass through the URL so the page stays shareable.

No JS? Fill the form by hand. The geolocation button needs JavaScript.